Home   Weather   Gummersbach   Past weeks

Flag for Germany Past Weather in Gummersbach, North Rhine-Westphalia, Germany — Yesterday and Last 2 Weeks

Now
50 °F

Scattered showers. Broken clouds.


Feels Like: 47 °F
Forecast: 30 / 50 °F
Wind: 8 mph from Northwest

Location: Koeln / Bonn

Current Time: Apr 26, 2017 at 3:59:15 pm

Latest Report: Apr 26, 2017 at 3:20 pm


Visibility: N/A

Pressure: 29.89 "Hg

Humidity: 47%

Dew Point: 30 °F

Location of GummersbachLocation

Past Weather in Gummersbach — Graph

°F

Gummersbach Temperature Yesterday

Maximum temperature yesterday: 52 °F (at 12:20 am)
Minimum temperature yesterday: 37 °F (at 11:20 pm)
Average temperature yesterday: 46 °F

High & Low Weather Summary for the Past Weeks

 TemperatureHumidityPressure
High61 °F (Apr 24, 3:20 pm)100% (Apr 14, 6:20 am)30.63 "Hg (Apr 14, 6:20 am)
Low25 °F (Apr 20, 6:20 am)32% (Apr 20, 3:50 pm)29.68 "Hg (Apr 25, 2:50 am)
Average45 °F69%30.15 "Hg
* Reported Apr 11 1:20 pm — Apr 26 1:58 pm, Gummersbach, Weather by CustomWeather, © 2017

Note: Actual official high and low records may vary slightly from our data, if they occured in-between our weather recording intervals... More about our weather records

Advertising

Gummersbach Weather History for the Previous 24 Hours

Scroll right to see more
 ConditionsComfort  
Time TempWeatherWind HumidityBarometerVisibility
1:58 pm
Wed, Apr 26
50 °FSprinkles. Scattered clouds.12 mph54%29.89 "HgN/A
1:50 pm50 °FSprinkles. Scattered clouds.10 mph54%29.89 "HgN/A
1:20 pm48 °FSprinkles. Broken clouds.6 mph58%29.89 "HgN/A
12:50 pm45 °FSprinkles. Partly sunny.13 mph66%29.89 "HgN/A
12:20 pm46 °FSprinkles. Scattered clouds.8 mph62%29.89 "HgN/A
11:50 am46 °FScattered showers. Scattered clouds.9 mph57%29.89 "HgN/A
11:20 am46 °FScattered clouds.9 mph62%29.89 "HgN/A
10:50 am45 °FPartly sunny.10 mph66%29.89 "HgN/A
10:26 am46 °FScattered clouds.6 mph62%29.89 "HgN/A
10:20 am46 °FScattered clouds.5 mph66%29.89 "HgN/A
9:50 am43 °FPassing clouds.3 mph71%29.89 "HgN/A
9:20 am43 °FPassing clouds.5 mph71%29.89 "HgN/A
8:50 am39 °FPassing clouds.3 mph81%29.89 "HgN/A
8:20 am36 °FScattered clouds.5 mph87%29.89 "HgN/A
7:50 am30 °FScattered clouds.1 mph100%29.86 "HgN/A
7:20 am30 °FPartly sunny.2 mph93%29.86 "HgN/A
6:50 am32 °FFog.3 mph93%29.86 "HgN/A
6:20 am30 °FFog.3 mph93%29.86 "HgN/A
5:54 am32 °FFog.2 mph93%29.86 "HgN/A
5:20 am30 °FFog.2 mph93%29.86 "HgN/A
4:57 am34 °FFog.1 mph87%29.86 "HgN/A
4:50 am34 °FFog.1 mph87%29.86 "HgN/A
4:20 am30 °FFog.2 mph93%29.86 "HgN/A
3:50 am32 °FFog.2 mph93%29.86 "HgN/A
3:20 am34 °FClear.1 mph87%29.86 "Hg10 mi
2:50 am34 °FClear.2 mph93%29.86 "Hg10 mi
2:20 am34 °FClear.1 mph93%29.86 "Hg10 mi
1:50 am36 °FClear.1 mph87%29.86 "Hg10 mi
1:20 am36 °FClear.1 mph87%29.86 "Hg10 mi
12:50 am36 °FClear.2 mph87%29.86 "Hg10 mi
12:20 am36 °FClear.No wind87%29.83 "Hg10 mi
11:50 pm
Tue, Apr 25
37 °FClear.1 mph81%29.83 "Hg10 mi
11:20 pm37 °FClear.No wind87%29.83 "Hg10 mi
10:50 pm39 °FClear.3 mph81%29.83 "Hg10 mi
10:20 pm39 °FClear.3 mph75%29.83 "Hg10 mi
9:50 pm41 °FSprinkles. Passing clouds.3 mph70%29.83 "HgN/A
9:34 pm43 °FSprinkles. Passing clouds.5 mph61%29.83 "HgN/A
9:02 pm43 °FRain showers. Passing clouds.12 mph71%29.86 "HgN/A
8:20 pm43 °FScattered showers. Partly sunny.6 mph66%29.83 "HgN/A
7:50 pm43 °FSprinkles. Partly sunny.5 mph66%29.83 "HgN/A
7:20 pm41 °FSprinkles. Scattered clouds.13 mph70%29.83 "HgN/A
6:53 pm46 °FSprinkles. Scattered clouds.17 mph53%29.83 "HgN/A
6:20 pm48 °FScattered clouds.10 mph46%29.83 "HgN/A
5:50 pm50 °FScattered clouds.16 mph47%29.83 "HgN/A
5:20 pm48 °FScattered showers. Scattered clouds.12 mph54%29.80 "HgN/A
4:50 pm46 °FScattered showers. Scattered clouds.7 mph66%29.80 "HgN/A
4:23 pm43 °FSprinkles. Partly sunny.14 mph76%29.83 "HgN/A
4:20 pm43 °FSprinkles. Partly sunny.17 mph71%29.83 "HgN/A
3:50 pm50 °FScattered showers. Scattered clouds.14 mph43%29.80 "HgN/A
3:20 pm50 °FBroken clouds.15 mph47%29.80 "HgN/A
Weather by CustomWeather, © 2017

See weather overviewHow to use our weather pages